Tracking 19249 objects as of 15-Oct-2018
HD Live streaming from Space Station
objects crossing your sky now

EXOCUBE

Track EXOCUBE now!
10-day predictions
EXOCUBE is classified as:


NORAD ID: 40380
Int'l Code: 2015-003E
Perigee: 437.1 km
Apogee: 632.3 km
Inclination: 99.1 °
Period: 95.2 minutes
Semi major axis: 6905 km
RCS: Unknown
Launch date: January 31, 2015
Source: United States (US)
Launch site: AIR FORCE WESTERN TEST RANGE (AFWTR)

Uplink (MHz):
Downlink (MHz): 437.270
Beacon (MHz): 437.270
Mode: 9600bps FSK CW
Call sign: KK6HGC XO3
Status: Active

aabbcc
Your satellite tracking list
Your tracking list is empty




NASA's NSSDC Master Catalog

Two Line Element Set (TLE):
1 40380U 15003E   18287.99110539  .00001295  00000-0  62767-4 0  9996
2 40380  99.0861 206.6066 0141365 214.3867 144.8149 15.12830451204060
Source of the keplerian elements: Caltech